DW5174 Kilkenny IE current weather conditions

sailwx.info

Wind from 174

Air temperature 7.8° C
Dewpoint 6.9° C

Last reported at 2019-Sep-23 02:02 UTC.
Time now 2019-Sep-23 02:59 UTC

Location: N 52°40' W 007°15'.
View on Google Maps.

See reports from other nearby stations

  
Tides and Currents Weather Stations Pressure Air Temp Water Temp Dewpoint Dewpoint Depression Visibility Wind Speed Wind Dir Waves Ship Positions
date/time (UTC)wind fromknots sea level pressurealtimeterstation pressurevisibilityair tempwater tempwave heightnotes
2019-Sep-23 02:27 174 7.8
2019-Sep-23 02:22 174 7.8
2019-Sep-23 02:17 174 7.8
2019-Sep-23 02:12 174 7.8
2019-Sep-23 02:07 174 7.8
2019-Sep-23 02:02 174 7.8
2019-Sep-23 01:57 174 7.8
2019-Sep-23 01:52 174 7.8
2019-Sep-23 01:47 174 7.8
2019-Sep-23 01:42 174 8.3
2019-Sep-23 01:37 174 8.3
2019-Sep-23 01:32 174 8.3
2019-Sep-23 01:27 174 8.3
2019-Sep-23 01:22 174 8.3
2019-Sep-23 01:17 174 8.3
2019-Sep-23 01:12 174 8.3
2019-Sep-23 01:07 174 8.3
2019-Sep-23 01:02 174 8.3
2019-Sep-23 00:57 174 8.3
2019-Sep-23 00:52 174 8.3
2019-Sep-23 00:47 192 8.3
2019-Sep-23 00:42 220 8.3
2019-Sep-23 00:37 201 2 gusting 4 8.3
2019-Sep-23 00:32 185 8.3
2019-Sep-23 00:27 082 8.3
2019-Sep-23 00:22 082 8.3
2019-Sep-23 00:17 082 8.3
2019-Sep-23 00:12 082 8.3
2019-Sep-23 00:07 082 8.3
2019-Sep-23 00:02 082 8.3
2019-Sep-22 23:57 082 8.3
2019-Sep-22 23:52 082 8.9
2019-Sep-22 23:47 082 8.9
2019-Sep-22 23:42 082 8.9
2019-Sep-22 23:37 082 8.9
2019-Sep-22 23:32 082 9.4
2019-Sep-22 23:27 178 9.4
2019-Sep-22 23:22 178 9.4
2019-Sep-22 23:17 178 9.4
2019-Sep-22 23:12 178 8.9
2019-Sep-22 23:07 178 8.9
2019-Sep-22 23:02 178 8.9
2019-Sep-22 22:57 178 8.9
2019-Sep-22 22:52 178 9.4
2019-Sep-22 22:47 178 9.4
2019-Sep-22 22:42 178 9.4
2019-Sep-22 22:37 178 9.4
2019-Sep-22 22:32 178 9.4
2019-Sep-22 22:27 178 9.4
2019-Sep-22 22:22 171 9.4
2019-Sep-22 22:17 171 9.4
2019-Sep-22 22:12 171 9.4
2019-Sep-22 22:07 171 9.4
2019-Sep-22 22:02 171 9.4
2019-Sep-22 21:57 171 9.4
2019-Sep-22 21:52 171 9.4
2019-Sep-22 21:47 171 0 gusting 4 9.4
2019-Sep-22 21:42 187 10.0
2019-Sep-22 21:37 165 9.4
2019-Sep-22 21:32 178 0 10.0
2019-Sep-22 21:27 227 10.0
2019-Sep-22 21:22 222 10.0
2019-Sep-22 21:17 222 10.0
2019-Sep-22 21:12 222 10.6
2019-Sep-22 21:07 222 10.6
2019-Sep-22 21:02 227 3 gusting 6 10.6
2019-Sep-22 20:57 222 4 gusting 6 10.6
2019-Sep-22 20:52 191 2 gusting 6 10.6
2019-Sep-22 20:47 217 2 gusting 6 10.6
2019-Sep-22 20:42 208 3 gusting 4 10.6
2019-Sep-22 20:37 191 3 gusting 4 11.1
2019-Sep-22 20:32 206 1 gusting 3 11.1
2019-Sep-22 20:27 188 11.1
2019-Sep-22 20:22 188 11.1
2019-Sep-22 20:17 188 11.1
2019-Sep-22 20:12 188 11.7
2019-Sep-22 20:07 241 11.7
2019-Sep-22 20:02 241 11.7
2019-Sep-22 19:57 241 11.7
2019-Sep-22 19:52 241 0 gusting 4 11.7
2019-Sep-22 19:47 250 12.2
2019-Sep-22 19:42 246 12.2
2019-Sep-22 19:37 246 12.2
2019-Sep-22 19:32 237 2 gusting 6 12.8
2019-Sep-22 19:27 255 2 gusting 6 12.8
2019-Sep-22 19:22 257 2 gusting 5 12.8
2019-Sep-22 19:17 250 3 gusting 5 12.8
2019-Sep-22 19:12 234 3 12.8
2019-Sep-22 19:07 247 12.8
2019-Sep-22 19:02 247 12.8
2019-Sep-22 18:57 247 13.3
2019-Sep-22 18:52 247 13.3
2019-Sep-22 18:47 213 13.3
2019-Sep-22 18:42 265 13.3
2019-Sep-22 18:37 265 13.3
2019-Sep-22 18:32 265 13.3
2019-Sep-22 18:27 265 13.3
2019-Sep-22 18:22 265 13.9
2019-Sep-22 18:17 265 13.9
2019-Sep-22 18:12 265 13.9
2019-Sep-22 18:07 265 13.9
2019-Sep-22 18:02 265 13.9
2019-Sep-22 17:57 265 13.9
2019-Sep-22 17:52 265 13.9
2019-Sep-22 17:47 265 13.9
2019-Sep-22 17:42 265 13.9
2019-Sep-22 17:37 265 13.9
2019-Sep-22 17:32 265 13.9
2019-Sep-22 17:27 272 2 gusting 9 13.9
2019-Sep-22 17:22 275 4 gusting 9 13.9
2019-Sep-22 17:17 262 4 gusting 12 13.9
2019-Sep-22 17:12 275 4 gusting 13 13.9
2019-Sep-22 17:07 264 5 gusting 13 13.9
2019-Sep-22 17:02 253 6 gusting 13 13.9
2019-Sep-22 16:57 241 6 gusting 13 13.9
2019-Sep-22 16:52 262 6 gusting 13 13.9
2019-Sep-22 16:47 278 7 gusting 13 14.4
2019-Sep-22 16:42 260 7 gusting 13 14.4
2019-Sep-22 16:37 267 6 gusting 13 14.4
2019-Sep-22 16:32 268 6 gusting 12 14.4
2019-Sep-22 16:27 260 7 gusting 12 14.4
2019-Sep-22 16:22 286 5 gusting 12 14.4
2019-Sep-22 16:17 282 6 gusting 12 14.4
2019-Sep-22 16:12 281 7 gusting 12 14.4
2019-Sep-22 16:07 270 5 gusting 12 14.4
2019-Sep-22 16:02 258 5 gusting 11 14.4
2019-Sep-22 15:57 274 2 gusting 11 14.4
2019-Sep-22 15:52 279 2 gusting 11 14.4
2019-Sep-22 15:47 272 3 gusting 11 14.4
2019-Sep-22 15:42 267 4 gusting 14 14.4
2019-Sep-22 15:37 253 7 gusting 14 14.4
2019-Sep-22 15:32 277 6 gusting 11 14.4
2019-Sep-22 15:27 261 7 gusting 11 14.4
2019-Sep-22 15:22 271 5 gusting 9 15.0
2019-Sep-22 15:17 319 5 gusting 9 15.0
2019-Sep-22 15:12 260 5 gusting 8 15.0
2019-Sep-22 15:07 240 6 gusting 8 15.0
2019-Sep-22 15:02 243 3 gusting 5 15.0
2019-Sep-22 14:57 282 2 gusting 5 15.0
2019-Sep-22 14:52 230 15.0
2019-Sep-22 14:47 223 15.0
2019-Sep-22 14:42 216 15.0
2019-Sep-22 14:37 243 15.0
2019-Sep-22 14:32 237 2 gusting 1 15.0
2019-Sep-22 14:27 261 1 gusting 1 15.0
2019-Sep-22 14:22 326 15.0
2019-Sep-22 14:17 326 15.0
2019-Sep-22 14:12 326 15.0
2019-Sep-22 14:07 326 15.0
2019-Sep-22 14:02 326 15.0
2019-Sep-22 13:57 326 15.0
2019-Sep-22 13:52 326 15.0
2019-Sep-22 13:47 326 15.0
2019-Sep-22 13:42 326 15.0
2019-Sep-22 13:37 326 15.0
2019-Sep-22 13:32 326 15.0
2019-Sep-22 13:27 326 15.0
2019-Sep-22 13:22 326 15.0
2019-Sep-22 13:17 326 15.0
2019-Sep-22 13:12 246 15.0
2019-Sep-22 13:07 246 0 gusting 6 15.0
2019-Sep-22 13:02 358 2 gusting 5 15.0
2019-Sep-22 12:57 267 4 gusting 5 15.6
2019-Sep-22 12:52 275 1 gusting 5 15.6
2019-Sep-22 12:47 257 15.6
2019-Sep-22 12:42 265 15.6
2019-Sep-22 12:37 307 15.6
2019-Sep-22 12:32 307 15.6
2019-Sep-22 12:27 324 0 gusting 5 16.1
2019-Sep-22 12:22 338 16.1
2019-Sep-22 12:17 338 16.1
2019-Sep-22 12:12 333 16.1
2019-Sep-22 12:07 340 0 gusting 7 16.1
2019-Sep-22 12:02 330 5 gusting 5 16.1
2019-Sep-22 11:57 312 3 gusting 5 16.1
2019-Sep-22 11:52 333 0 16.7
2019-Sep-22 11:47 095 16.7
2019-Sep-22 11:42 095 16.7
2019-Sep-22 11:37 095 16.7
2019-Sep-22 11:32 095 16.7
2019-Sep-22 11:27 095 16.7
2019-Sep-22 11:22 095 16.7
2019-Sep-22 11:17 095 16.1
2019-Sep-22 11:12 095 16.1
2019-Sep-22 11:07 095 16.1
2019-Sep-22 11:02 095 16.1
2019-Sep-22 10:57 095 16.1
2019-Sep-22 10:52 095 16.1
2019-Sep-22 10:47 095 16.1
2019-Sep-22 10:42 095 16.1
2019-Sep-22 10:37 095 16.1
2019-Sep-22 10:32 095 16.1
2019-Sep-22 10:27 095 16.1
2019-Sep-22 10:22 095 16.1
2019-Sep-22 10:17 095 15.6
2019-Sep-22 10:12 095 15.6
2019-Sep-22 10:07 095 15.6
2019-Sep-22 10:02 095 15.6
2019-Sep-22 09:57 095 15.6
2019-Sep-22 09:52 095 15.6
2019-Sep-22 09:47 095 15.6
2019-Sep-22 09:42 095 15.6
2019-Sep-22 09:37 095 15.6
2019-Sep-22 09:32 095 15.6
2019-Sep-22 09:27 095 15.6
2019-Sep-22 09:22 095 15.6
2019-Sep-22 09:17 095 15.6
2019-Sep-22 09:12 095 15.6
2019-Sep-22 09:07 095 15.6
2019-Sep-22 09:02 095 15.0
2019-Sep-22 08:57 095 15.0
2019-Sep-22 08:52 095 15.0
2019-Sep-22 08:47 133 15.0
2019-Sep-22 08:42 202 15.0
2019-Sep-22 08:37 210 15.0
2019-Sep-22 08:32 210 15.0
2019-Sep-22 08:27 210 15.0
2019-Sep-22 08:22 210 15.0
2019-Sep-22 08:17 210 15.0
2019-Sep-22 08:12 210 15.0
2019-Sep-22 08:07 210 15.0
2019-Sep-22 08:02 210 15.0
2019-Sep-22 07:57 210 15.0
2019-Sep-22 07:52 210 15.0
2019-Sep-22 07:47 210 14.4
2019-Sep-22 07:42 210 14.4
2019-Sep-22 07:37 210 14.4
2019-Sep-22 07:32 210 14.4
2019-Sep-22 07:27 210 14.4
2019-Sep-22 07:22 210 14.4
2019-Sep-22 07:17 210 14.4
2019-Sep-22 07:12 210 14.4
2019-Sep-22 07:07 210 14.4
2019-Sep-22 07:02 210 14.4
2019-Sep-22 06:57 210 14.4
2019-Sep-22 06:52 210 14.4
2019-Sep-22 06:47 210 14.4
2019-Sep-22 06:42 210 14.4
2019-Sep-22 06:37 210 14.4
2019-Sep-22 06:32 210 14.4
2019-Sep-22 06:27 210 14.4
2019-Sep-22 06:22 210 14.4
2019-Sep-22 06:17 210 14.4
2019-Sep-22 06:12 210 14.4
2019-Sep-22 06:07 210 14.4
2019-Sep-22 06:02 210 14.4
2019-Sep-22 05:57 210 14.4
2019-Sep-22 05:52 210 14.4
2019-Sep-22 05:47 210 14.4
2019-Sep-22 05:42 210 14.4
2019-Sep-22 05:37 210 14.4
2019-Sep-22 05:32 210 14.4
2019-Sep-22 05:27 210 15.0
2019-Sep-22 05:22 210 15.0
2019-Sep-22 05:17 210 15.0
2019-Sep-22 05:12 210 15.0
2019-Sep-22 05:07 210 15.0
2019-Sep-22 05:02 210 15.0
2019-Sep-22 04:57 210 15.0
2019-Sep-22 04:52 210 15.0
2019-Sep-22 04:47 210 15.0
2019-Sep-22 04:42 210 15.0
2019-Sep-22 04:37 210 15.0
2019-Sep-22 04:32 210 15.0
2019-Sep-22 04:27 210 0 gusting 2 15.0
2019-Sep-22 04:22 203 15.0
2019-Sep-22 04:17 208 0 gusting 3 15.0
2019-Sep-22 04:12 090 15.0
2019-Sep-22 04:07 090 15.0
2019-Sep-22 04:02 090 15.0
2019-Sep-22 03:57 090 15.6
2019-Sep-22 03:52 082 15.6
2019-Sep-22 03:47 059 15.6
2019-Sep-22 03:42 082 1 gusting 2 15.6
2019-Sep-22 03:37 105 15.6
2019-Sep-22 03:32 105 15.6
2019-Sep-22 03:27 105 15.6
2019-Sep-22 03:22 126 15.6
2019-Sep-22 03:17 126 15.6
2019-Sep-22 03:12 126 15.6
2019-Sep-22 03:07 126 15.6
2019-Sep-22 03:02 126 15.6
2019-Sep-22 02:57 153 15.6
2019-Sep-22 02:52 153 1 gusting 5 15.6
2019-Sep-22 02:47 167 15.6
2019-Sep-22 02:42 140 0 gusting 4 15.6
2019-Sep-22 02:37 202 15.6
2019-Sep-22 02:32 154 1 gusting 4 15.6
2019-Sep-22 02:27 163 15.6
2019-Sep-22 02:22 171 1 15.6
2019-Sep-22 02:17 149 15.6
2019-Sep-22 02:12 149 15.6
2019-Sep-22 02:07 149 15.6
2019-Sep-22 02:02 149 15.6
2019-Sep-22 01:57 161 16.1
2019-Sep-22 01:52 161 16.1
2019-Sep-22 01:47 161 16.1
2019-Sep-22 01:42 161 16.1
2019-Sep-22 01:37 161 16.1
2019-Sep-22 01:32 154 16.1
2019-Sep-22 01:27 140 0 gusting 7 16.1
2019-Sep-22 01:22 172 1 gusting 7 16.1
2019-Sep-22 01:17 156 2 gusting 7 16.1
2019-Sep-22 01:12 140 2 gusting 7 16.1
2019-Sep-22 01:07 143 16.1
2019-Sep-22 01:02 172 16.1
2019-Sep-22 00:57 125 0 gusting 10 16.1
2019-Sep-22 00:52 164 2 gusting 10 16.1
2019-Sep-22 00:47 178 2 gusting 10 16.1
2019-Sep-22 00:42 057 3 gusting 9 16.1
2019-Sep-22 00:37 111 0 gusting 9 16.1
2019-Sep-22 00:32 104 2 gusting 10 16.1
2019-Sep-22 00:27 104 3 gusting 10 16.1
2019-Sep-22 00:22 137 0 gusting 8 16.1
2019-Sep-22 00:17 172 0 gusting 8 16.1
2019-Sep-22 00:12 109 2 gusting 11 16.1
2019-Sep-22 00:07 172 16.1
2019-Sep-22 00:02 143 5 gusting 13 16.1
2019-Sep-21 23:57 160 4 gusting 13 16.1
2019-Sep-21 23:52 163 4 gusting 13 16.1
2019-Sep-21 23:47 081 3 gusting 13 16.1
2019-Sep-21 23:42 146 2 gusting 16 16.1
2019-Sep-21 23:37 119 3 gusting 16 16.7
2019-Sep-21 23:32 085 5 gusting 16 16.7
2019-Sep-21 23:27 104 6 gusting 14 16.7
2019-Sep-21 23:22 082 6 gusting 14 16.7
2019-Sep-21 23:17 074 2 gusting 15 16.7
2019-Sep-21 23:12 161 2 gusting 15 16.7
2019-Sep-21 23:07 144 6 gusting 15 16.7
2019-Sep-21 23:02 125 6 gusting 15 16.7
2019-Sep-21 22:57 080 4 gusting 15 16.7
2019-Sep-21 22:52 150 6 gusting 15 16.7
2019-Sep-21 22:47 119 6 gusting 15 16.7
2019-Sep-21 22:42 136 6 gusting 11 16.7
2019-Sep-21 22:37 085 4 gusting 11 16.7
2019-Sep-21 22:32 120 3 gusting 12 16.7
2019-Sep-21 22:27 102 6 gusting 12 16.7
2019-Sep-21 22:22 147 3 gusting 12 16.7
2019-Sep-21 22:17 109 3 gusting 12 16.7
2019-Sep-21 22:12 098 6 gusting 9 16.7
2019-Sep-21 22:07 097 3 gusting 9 16.1
2019-Sep-21 22:02 078 6 gusting 9 16.1
2019-Sep-21 21:57 085 4 gusting 9 16.1
2019-Sep-21 21:52 109 4 gusting 9 16.1
2019-Sep-21 21:47 122 6 gusting 9 16.1
2019-Sep-21 21:42 136 3 gusting 13 16.1
2019-Sep-21 21:37 102 3 gusting 13 16.1
2019-Sep-21 21:32 105 4 gusting 11 16.1
2019-Sep-21 21:27 097 5 gusting 11 16.1
2019-Sep-21 21:22 115 4 gusting 10 16.7
2019-Sep-21 21:17 092 6 gusting 10 16.7
2019-Sep-21 21:12 059 5 gusting 13 16.7
2019-Sep-21 21:07 160 5 gusting 13 16.7
2019-Sep-21 21:02 111 6 gusting 13 16.7
2019-Sep-21 20:57 091 5 gusting 13 16.7
2019-Sep-21 20:52 059 5 gusting 14 16.7
2019-Sep-21 20:47 154 3 gusting 14 16.7
2019-Sep-21 20:42 140 9 gusting 14 16.7
2019-Sep-21 20:37 105 6 gusting 14 16.7
2019-Sep-21 20:32 108 6 gusting 12 16.7
2019-Sep-21 20:27 139 6 gusting 12 16.7
2019-Sep-21 20:22 078 6 gusting 13 16.7
2019-Sep-21 20:17 063 5 gusting 13 16.7
2019-Sep-21 20:12 105 7 gusting 13 16.7
2019-Sep-21 20:07 120 6 gusting 13 16.7
2019-Sep-21 20:02 092 6 gusting 10 16.7
2019-Sep-21 19:57 135 6 gusting 10 16.7
2019-Sep-21 19:52 132 4 gusting 10 16.7
2019-Sep-21 19:47 120 4 gusting 10 16.7
2019-Sep-21 19:42 129 2 gusting 10 16.7
2019-Sep-21 19:37 115 6 gusting 10 16.7
2019-Sep-21 19:32 127 5 gusting 10 16.7
2019-Sep-21 19:27 153 6 gusting 10 16.7
2019-Sep-21 19:22 094 5 gusting 14 16.7
2019-Sep-21 19:17 113 6 gusting 14 16.7
2019-Sep-21 19:12 101 6 gusting 14 16.7
2019-Sep-21 19:07 102 5 gusting 14 16.7
2019-Sep-21 19:02 170 5 gusting 12 16.7
2019-Sep-21 18:57 149 3 gusting 12 16.7
2019-Sep-21 18:52 143 5 gusting 12 16.7
2019-Sep-21 18:47 160 4 gusting 12 16.7
2019-Sep-21 18:42 130 6 gusting 11 16.7
2019-Sep-21 18:37 181 4 gusting 11 16.7
2019-Sep-21 18:32 184 5 gusting 13 16.7
2019-Sep-21 18:27 108 6 gusting 13 16.7
2019-Sep-21 18:22 098 6 gusting 13 16.7
2019-Sep-21 18:17 084 5 gusting 13 16.7
2019-Sep-21 18:12 123 6 gusting 13 16.7
2019-Sep-21 18:07 115 2 gusting 13 16.7
2019-Sep-21 18:02 125 4 gusting 12 16.7
2019-Sep-21 17:57 105 4 gusting 12 16.7
2019-Sep-21 17:52 111 3 gusting 12 16.7
2019-Sep-21 17:47 064 5 gusting 12 16.7
2019-Sep-21 17:42 146 3 gusting 12 16.7
2019-Sep-21 17:37 098 5 gusting 12 16.7
2019-Sep-21 17:32 158 5 gusting 12 16.7
2019-Sep-21 17:27 120 5 gusting 11 16.7
2019-Sep-21 17:22 092 4 gusting 11 16.7
2019-Sep-21 17:17 106 3 gusting 12 16.7
2019-Sep-21 17:12 088 5 gusting 12 16.7
2019-Sep-21 17:02 113 3 gusting 10 17.2
2019-Sep-21 16:57 078 5 gusting 10 17.2
2019-Sep-21 16:52 123 6 gusting 10 17.2
2019-Sep-21 16:47 144 5 gusting 10 16.7
2019-Sep-21 16:42 126 3 gusting 10 16.7
2019-Sep-21 16:37 115 3 gusting 10 16.7
2019-Sep-21 16:32 130 5 gusting 14 16.7
2019-Sep-21 16:27 133 3 gusting 14 16.7
2019-Sep-21 16:22 208 6 gusting 14 16.7
2019-Sep-21 16:17 105 5 gusting 14 16.7
2019-Sep-21 16:12 101 6 gusting 12 16.7
2019-Sep-21 16:07 122 5 gusting 12 17.2
2019-Sep-21 16:02 153 5 gusting 14 17.2
2019-Sep-21 15:57 125 3 gusting 14 17.2
2019-Sep-21 15:52 144 4 gusting 10 17.2
2019-Sep-21 15:47 135 4 gusting 10 17.2
2019-Sep-21 15:42 164 4 gusting 13 17.2
2019-Sep-21 15:37 112 3 gusting 13 17.2
2019-Sep-21 15:32 135 5 gusting 13 17.2
2019-Sep-21 15:27 135 6 gusting 13 17.2
2019-Sep-21 15:22 109 7 gusting 13 17.2
2019-Sep-21 15:17 112 6 gusting 13 17.2
2019-Sep-21 15:12 077 5 gusting 10 17.2
2019-Sep-21 15:07 154 9 gusting 10 17.2
2019-Sep-21 15:02 082 6 gusting 11 16.7
2019-Sep-21 14:57 129 3 gusting 11 16.7
2019-Sep-21 14:52 122 6 gusting 13 16.7
2019-Sep-21 14:47 102 6 gusting 13 16.7
2019-Sep-21 14:42 139 3 gusting 14 16.7
2019-Sep-21 14:37 163 3 gusting 14 16.7
2019-Sep-21 14:32 130 5 gusting 11 16.7
2019-Sep-21 14:27 125 7 gusting 11 16.7
2019-Sep-21 14:22 115 5 gusting 11 16.7
2019-Sep-21 14:17 099 4 gusting 11 16.7
2019-Sep-21 14:12 111 5 gusting 10 16.7
2019-Sep-21 14:07 094 6 gusting 10 16.7
2019-Sep-21 14:02 140 6 gusting 13 16.7
2019-Sep-21 13:57 102 4 gusting 13 16.7
2019-Sep-21 13:52 063 3 gusting 13 16.1
2019-Sep-21 13:47 137 2 gusting 13 16.1
2019-Sep-21 13:42 071 6 gusting 10 16.1
2019-Sep-21 13:37 077 6 gusting 10 16.1
2019-Sep-21 13:32 040 3 gusting 9 16.1
2019-Sep-21 13:27 075 4 gusting 9 16.1
2019-Sep-21 13:22 025 4 gusting 12 16.1
2019-Sep-21 13:17 074 1 gusting 12 16.1
2019-Sep-21 13:12 099 0 gusting 12 16.1
2019-Sep-21 13:07 101 6 gusting 12 16.1
2019-Sep-21 13:02 133 6 gusting 9 15.6
2019-Sep-21 12:57 104 6 gusting 9 15.6
2019-Sep-21 12:52 097 5 gusting 7 15.6
2019-Sep-21 12:47 126 6 gusting 7 15.6
2019-Sep-21 12:42 108 3 gusting 11 16.1
2019-Sep-21 12:37 036 1 gusting 11 16.1
2019-Sep-21 12:32 130 1 gusting 12 16.1
2019-Sep-21 12:27 104 4 gusting 12 16.1
2019-Sep-21 12:22 171 6 gusting 8 16.1
2019-Sep-21 12:17 092 7 gusting 8 16.1
2019-Sep-21 12:12 123 1 gusting 11 16.1
2019-Sep-21 12:07 109 3 gusting 11 16.7
2019-Sep-21 12:02 106 5 gusting 14 16.7
2019-Sep-21 11:57 095 6 gusting 14 16.7
2019-Sep-21 11:52 085 7 gusting 15 16.7
2019-Sep-21 11:47 088 7 gusting 15 16.7
2019-Sep-21 11:42 094 5 gusting 18 17.2
2019-Sep-21 11:37 091 6 gusting 18 17.2
2019-Sep-21 11:32 125 10 gusting 18 17.2
2019-Sep-21 11:27 097 6 gusting 19 17.2
2019-Sep-21 11:22 102 10 gusting 19 17.8
2019-Sep-21 11:17 127 7 gusting 16 17.8
2019-Sep-21 11:12 105 12 gusting 16 18.3
2019-Sep-21 11:07 111 9 gusting 16 18.3
2019-Sep-21 11:02 129 9 gusting 17 18.3
2019-Sep-21 10:57 136 8 gusting 17 18.3
2019-Sep-21 10:52 142 9 gusting 16 18.9
2019-Sep-21 10:47 147 6 gusting 16 18.9
2019-Sep-21 10:42 104 8 gusting 19 18.9
2019-Sep-21 10:37 137 6 gusting 19 19.4
2019-Sep-21 10:32 081 6 gusting 19 18.9
2019-Sep-21 10:27 167 9 gusting 19 18.9
2019-Sep-21 10:22 126 10 gusting 16 18.9
2019-Sep-21 10:17 171 5 gusting 16 18.9
2019-Sep-21 10:12 098 6 gusting 18 19.4
2019-Sep-21 10:07 090 6 gusting 18 19.4
2019-Sep-21 10:02 082 9 gusting 18 19.4
2019-Sep-21 09:57 118 11 gusting 18 19.4
2019-Sep-21 09:52 127 7 gusting 15 19.4
2019-Sep-21 09:47 084 5 gusting 15 18.9
2019-Sep-21 09:42 118 7 gusting 15 18.9
2019-Sep-21 09:37 118 8 gusting 15 18.9
2019-Sep-21 09:32 109 8 gusting 17 18.9
2019-Sep-21 09:27 157 7 gusting 17 18.9
2019-Sep-21 09:22 088 7 gusting 17 18.9
2019-Sep-21 09:17 098 6 gusting 17 18.3
2019-Sep-21 09:12 130 11 gusting 17 18.3
2019-Sep-21 09:07 115 8 gusting 17 18.3
2019-Sep-21 09:02 102 7 gusting 19 18.3
2019-Sep-21 08:57 092 6 gusting 19 17.8
2019-Sep-21 08:52 059 7 gusting 19 17.8
2019-Sep-21 08:47 125 7 gusting 19 17.8
2019-Sep-21 08:42 092 8 gusting 17 17.2
2019-Sep-21 08:37 084 9 gusting 17 17.2
2019-Sep-21 08:32 112 10 gusting 14 17.2
2019-Sep-21 08:27 116 11 gusting 14 16.7
2019-Sep-21 08:22 092 10 gusting 13 16.7
2019-Sep-21 08:17 135 6 gusting 13 16.7
2019-Sep-21 08:12 080 6 gusting 13 16.1
2019-Sep-21 08:07 097 8 gusting 13 16.1
2019-Sep-21 08:02 119 6 gusting 12 16.1
2019-Sep-21 07:57 109 6 gusting 12 15.6
2019-Sep-21 07:52 111 7 gusting 14 15.6
2019-Sep-21 07:47 095 5 gusting 14 15.6
2019-Sep-21 07:42 084 8 gusting 14 15.6
2019-Sep-21 07:37 056 6 gusting 14 15.6
2019-Sep-21 07:32 082 6 gusting 14 15.6
2019-Sep-21 07:27 085 6 gusting 14 15.6
2019-Sep-21 07:22 150 6 gusting 13 15.6
2019-Sep-21 07:17 105 6 gusting 13 15.6
2019-Sep-21 07:12 094 5 gusting 13 15.6
2019-Sep-21 07:07 109 7 gusting 13 15.6
2019-Sep-21 07:02 102 9 gusting 12 15.0
2019-Sep-21 06:57 060 5 gusting 12 15.0
2019-Sep-21 06:52 091 7 gusting 10 15.0
2019-Sep-21 06:47 097 6 gusting 10 15.0
2019-Sep-21 06:42 094 6 gusting 12 15.0
2019-Sep-21 06:37 116 4 gusting 12 15.0
2019-Sep-21 06:32 091 7 gusting 12 15.0
2019-Sep-21 06:27 097 3 gusting 8 15.0
2019-Sep-21 06:22 106 5 gusting 8 15.0
2019-Sep-21 06:17 118 3 gusting 13 15.6
2019-Sep-21 06:12 073 5 gusting 13 15.6
2019-Sep-21 06:07 101 1 gusting 13 15.6
2019-Sep-21 06:02 098 6 gusting 13 15.6
2019-Sep-21 05:57 104 6 gusting 13 15.6
2019-Sep-21 05:52 142 7 gusting 13 15.6
2019-Sep-21 05:47 115 6 gusting 13 15.6
2019-Sep-21 05:42 067 6 gusting 13 15.6
2019-Sep-21 05:37 119 4 gusting 13 15.6
2019-Sep-21 05:32 087 8 gusting 13 15.6
2019-Sep-21 05:27 074 6 gusting 14 15.6
2019-Sep-21 05:22 068 6 gusting 14 15.6
2019-Sep-21 05:17 025 7 gusting 14 15.6
2019-Sep-21 05:12 113 6 gusting 15 15.6
2019-Sep-21 05:07 123 6 gusting 15 15.0
2019-Sep-21 05:02 059 6 gusting 15 15.0
2019-Sep-21 04:57 109 6 gusting 11 15.0
2019-Sep-21 04:52 085 6 gusting 11 15.0
2019-Sep-21 04:47 101 7 gusting 10 15.0
2019-Sep-21 04:42 052 6 gusting 10 14.4
2019-Sep-21 04:37 094 6 gusting 10 14.4
2019-Sep-21 04:32 118 6 gusting 10 14.4
2019-Sep-21 04:27 085 6 gusting 13 14.4
2019-Sep-21 04:22 084 4 gusting 13 14.4
2019-Sep-21 04:17 115 4 gusting 11 14.4
2019-Sep-21 04:12 115 6 gusting 11 14.4
2019-Sep-21 04:07 102 5 gusting 11 13.9
2019-Sep-21 04:02 125 5 gusting 11 13.9
2019-Sep-21 03:57 073 5 gusting 12 13.9
2019-Sep-21 03:52 112 5 gusting 12 13.9
2019-Sep-21 03:47 116 6 gusting 12 13.9
2019-Sep-21 03:42 105 6 gusting 12 13.9
2019-Sep-21 03:37 101 5 gusting 12 13.9
2019-Sep-21 03:32 118 4 gusting 10 13.9
2019-Sep-21 03:27 091 7 gusting 10 13.9
2019-Sep-21 03:22 054 6 gusting 10 13.9
2019-Sep-21 03:17 095 6 gusting 10 13.9
2019-Sep-21 03:12 088 5 gusting 11 13.9
2019-Sep-21 03:07 087 4 gusting 11 13.9
2019-Sep-21 03:02 111 5 gusting 11 13.9
2019-Sep-21 02:57 113 5 gusting 11 13.9
2019-Sep-21 02:52 118 5 gusting 11 13.9
2019-Sep-21 02:47 071 6 gusting 11 13.9
2019-Sep-21 02:42 091 6 gusting 11 13.9
2019-Sep-21 02:37 112 8 gusting 11 13.9
2019-Sep-21 02:32 122 6 gusting 12 13.9
2019-Sep-21 02:27 111 6 gusting 12 13.9
2019-Sep-21 02:22 104 5 gusting 11 13.9
2019-Sep-21 02:17 106 7 gusting 11 13.3
2019-Sep-21 02:12 125 6 gusting 13 13.3
2019-Sep-21 02:07 099 7 gusting 13 13.3
2019-Sep-21 02:02 092 6 gusting 11 13.3